Home > Weather > Christchurch > Past weeks

Flag for New Zealand Past Weather in Christchurch, New Zealand — Yesterday and Last 2 Weeks

Now
46 °F

Overcast.


Feels Like: 41 °F
Forecast: 47 / 55 °F
Wind: 10 mph from West

Location: Christchurch Airport

Current Time: May 28, 2016 at 10:08:28 AM

Latest Report: May 28, 2016 at 9:30 AM


Visibility: N/A

Pressure: 29.24 "Hg

Humidity: 87%

Dew Point: 43 °F

Location of ChristchurchLocation

Past Weather in Christchurch — Graph

°F

Christchurch Temperature Yesterday

Maximum temperature yesterday: 55 °F (at 1:30 PM)
Minimum temperature yesterday: 34 °F (at 4:30 AM)
Average temperature yesterday: 46 °F

High & Low Weather Summary for the Past Weeks

 TemperatureHumidityPressure
High72 °F (May 13, 2:30 PM)100% (May 18, 10:30 PM)30.01 "Hg (May 18, 10:30 PM)
Low34 °F (May 27, 4:30 AM)26% (May 19, 1:30 PM)29.06 "Hg (May 20, 8:30 PM)
Average51 °F71%29.42 "Hg
* Reported May 13 9:00 AM — May 28 9:00 AM, Christchurch, Weather by CustomWeather, © 2016

Note: Actual official high and low records may vary slightly from our data, if they occured in-between our weather recording intervals... More about our weather records

Advertising

Christchurch Weather History for the Previous 24 Hours

Scroll right to see more
 ConditionsComfort  
Time TempWeatherWind HumidityBarometerVisibility
9:00 AM
Sat, May 28
46 °FOvercast.8 mph87%29.24 "HgN/A
8:30 AM45 °FDrizzle. Broken clouds.10 mph93%29.24 "HgN/A
8:00 AM45 °FSprinkles. Broken clouds.9 mph100%29.27 "HgN/A
7:30 AM45 °FLight rain. Mostly cloudy.9 mph100%29.27 "HgN/A
7:00 AM46 °FLight rain. Broken clouds.12 mph100%29.27 "HgN/A
6:30 AM48 °FRain. Partly cloudy.8 mph100%29.30 "Hg2 mi
6:00 AM48 °FRain. Passing clouds.8 mph100%29.30 "Hg2 mi
5:30 AM50 °FRain. Passing clouds.5 mph100%29.33 "Hg3 mi
5:00 AM50 °FRain. Mostly cloudy.5 mph100%29.36 "Hg5 mi
4:30 AM50 °FRain. Passing clouds.12 mph100%29.39 "Hg5 mi
4:00 AM50 °FLight rain. Partly cloudy.14 mph100%29.42 "Hg6 mi
3:30 AM50 °FRain. Mostly cloudy.14 mph100%29.42 "Hg4 mi
3:00 AM50 °FRain. Passing clouds.12 mph100%29.45 "Hg4 mi
2:30 AM50 °FRain. Passing clouds.15 mph100%29.47 "HgN/A
2:00 AM50 °FSprinkles. Passing clouds.13 mph100%29.47 "HgN/A
1:30 AM50 °FSprinkles. Passing clouds.14 mph94%29.50 "HgN/A
1:00 AM50 °FSprinkles. Mostly cloudy.14 mph94%29.53 "HgN/A
12:30 AM52 °FDrizzle. Overcast.14 mph88%29.56 "HgN/A
12:00 AM52 °FMostly cloudy.10 mph88%29.59 "HgN/A
11:30 PM
Fri, May 27
52 °FOvercast.9 mph88%29.59 "HgN/A
11:00 PM52 °FOvercast.10 mph82%29.62 "HgN/A
10:30 PM52 °FOvercast.9 mph88%29.62 "HgN/A
10:00 PM52 °FPassing clouds.12 mph88%29.62 "HgN/A
9:30 PM52 °FPassing clouds.9 mph82%29.62 "HgN/A
9:00 PM50 °FPassing clouds.9 mph88%29.65 "HgN/A
8:30 PM50 °FCool.9 mph88%29.65 "HgN/A
8:00 PM50 °FPassing clouds.9 mph88%29.65 "HgN/A
7:30 PM52 °FMostly cloudy.9 mph82%29.65 "HgN/A
7:00 PM52 °FMostly cloudy.8 mph82%29.65 "HgN/A
6:30 PM50 °FPassing clouds.7 mph88%29.65 "HgN/A
6:00 PM50 °FPassing clouds.7 mph88%29.65 "HgN/A
5:30 PM48 °FCool.7 mph87%29.65 "HgN/A
5:00 PM50 °FCool.8 mph82%29.62 "HgN/A
4:30 PM52 °FCool.10 mph77%29.62 "HgN/A
4:00 PM54 °FCool.7 mph72%29.62 "HgN/A
3:30 PM54 °FPassing clouds.8 mph72%29.62 "HgN/A
3:00 PM55 °FCool.8 mph63%29.62 "HgN/A
2:30 PM55 °FCool.7 mph67%29.62 "HgN/A
2:00 PM55 °FCool.5 mph63%29.62 "HgN/A
1:30 PM55 °FCool.3 mph63%29.62 "HgN/A
1:00 PM54 °FCool.3 mph67%29.62 "HgN/A
12:30 PM54 °FCool.3 mph67%29.62 "HgN/A
12:00 PM54 °FCool.3 mph67%29.62 "HgN/A
11:30 AM52 °FPassing clouds.1 mph67%29.65 "HgN/A
11:00 AM52 °FPartly sunny.1 mph67%29.65 "HgN/A
10:30 AM48 °FPartly sunny.2 mph76%29.65 "HgN/A
10:00 AM45 °FBroken clouds.1 mph87%29.62 "HgN/A
Weather by CustomWeather, © 2016

See weather overviewHow to use our weather pages